Location: Namasale
(1.5000°N, 32.6167°E)
Time: 00:10:35
(UTC+00:00)

Vanguard 3 - Pass Details

Date: 03 December 2021
Orbit: 508 x 3260 km, 33.3° (Epoch: 27 January)

Event Time Altitude Azimuth Distance (km) Brightness Sun altitude
Exits shadow 01:23:27 36° 329° (NNW) 4,379 10.3 -31.8°
Maximum altitude 01:23:56 36° 332° (NNW) 4,377 10.4 -31.7°
Drops below altitude 10° 01:40:24 10° 33° (NNE) 5,694 11.5 -28.0°
Sets 01:45:03 0° 42° (NE) 6,409 11.9 -26.9°
